Location: Altleiningen
(49.5078°N, 8.0741°E)
Time: 05:13:13
(UTC+00:00)

SeaSat 1 - Pass Details

Date: 03 March 2021
Orbit: 744 x 747 km, 108.0° (Epoch: 11 April)

Event Time Altitude Azimuth Distance (km) Brightness Sun altitude
Rises 17:55:14 0° 36° (NE) 3,202 5.4 -7.5°
Reaches altitude 10° 17:57:45 10° 47° (NE) 2,274 4.5 -7.9°
Maximum altitude 18:02:08 31° 110° (ESE) 1,284 3.2 -8.6°
Drops below altitude 10° 18:06:30 10° 172° (S) 2,260 4.9 -9.3°
Sets 18:08:59 0° 183° (S) 3,179 5.7 -9.7°
